Terug naar catalogus

FENGYUN 1C DEB

ActiefPO
NORAD 31555·DEBRIS·🇨🇳 China

Gelanceerd May 10, 1999 vanaf Taiyuan Satellite Launch Center

Loading…

Volgende Passages (komende 24 uur)

TLE

VersSource: Space-Track

Epoch: Sep 13, 2026, 04:28 UTC

1 31555U 99025BYW 26256.18644926  .00003571  00000-0  85705-3 0  9999
2 31555  99.1243 235.8917 0149767 100.7957 261.0131 14.47497646  5299

Volg FENGYUN 1C DEB in realtime met AllMySat

Download on the App Store